Погода в Санамере

Россия / Ставропольский край     44°04′24″N   42°51′11″E
темп.,
°C
ветер,
м/с
пор.,
м/с
влажн.,
%
обл.,
%
осадки,
мм/ч
давл.,
гПа
погр.,
м
14 апреля, ср
ср1400:00+6з2492100 0.9 1019190
03:00+4з339130 0.9 101859
06:00+4з3484100 0.0 1018109
09:00+7зсз4675100 0.0 1018708
12:00+10ссз3263100 0.0 10171034
15:00+11ссз5464100 0.3 10161020
18:00+9сз2377100 0.3 1018600
21:00+7зсз118592 0.3 101992
15 апреля, чт
чт1500:00+5ююз22892 0.0 101812
03:00+5юз22815 0.0 101811
06:00+5ююз22705 0.0 101913
09:00+12св10520 0.0 1017568
12:00+14ссв323791 0.0 10161658
15:00+15ссв433763 0.0 10151799
18:00+13св355297 0.0 1016151
21:00+10вюв2260100 0.0 101824
16 апреля, пт
пт1600:00+8юв2268100 0.0 101712
03:00+7ююв227179 0.0 101710
06:00+8ю226990 0.0 101811
09:00+13в345258 0.0 1017710
12:00+16в7645100 0.0 10151447
15:00+16вюв7747100 0.1 10151534
18:00+14юв595973 0.4 1015475
21:00+8зсз339499 1.8 1020164
17 апреля, сб
сб1700:00+7сз229731 0.0 102046
03:00+7сз1292100 0.0 1020292
06:00+7ссз2597100 0.4 1022517
09:00+6св1192100 0.8 1023279
12:00+7всв3487100 0.1 1022655
15:00+8в3585100 0.1 1022694
18:00+7вюв2392100 1.1 1022227
21:00+7вюв2394100 1.4 1022151
18 апреля, вс
вс1800:00+6юв2295100 0.0 102168
03:00+7юв2292100 0.4 102172
06:00+7юв3491100 0.2 1019139
09:00+11в3375100 0.2 1017442
12:00+14всв4366100 0.1 1016776
15:00+14в327197 0.9 1017777
18:00+12вюв338642 2.3 1017327
21:00+10ююв22915 3.1 101838